Tracking 35048 objects as of 19-Aug-2026
HD Live streaming from Space Station
objects crossing your sky now

CSTP-2.1

Track CSTP-2.1 now!
10-day predictions
CSTP-2.1 is classified as:


NORAD ID: 61777
Int'l Code: 2024-199AU
Launch date: November 4, 2024
Source: (TBD)
Launch site: VOSTOCHNY COSMODROME (VOSTO)

Uplink (MHz):
Downlink (MHz): 437.485
Beacon (MHz):
Mode: LoRa
Call sign:
Status: Unknown

Your satellite tracking list
Your tracking list is empty




NASA's NSSDC Master Catalog

Two Line Element Set (TLE):
1 61777U 24199AU  26230.93796652  .00018466  00000-0  35747-3 0  9997
2 61777  97.2883 103.9058 0015333  53.9652 306.3017 15.47649740143889
Source of the keplerian elements: AFSPC